Regional Weather Roundup
Issued by NWS

Home | Current Version | Previous Version | Graphics & Text | Print | Product List | Glossary On
Versions: 1 2 3 4 5 6 7 8 9 10 11 12 13 14 15 16 17 18 19 20 21 22 23 24 25 26 27 28 29 30 31 32 33 34 35 36 37 38 39 40 41 42 43 44 45 46 47 48 49 50
000
ASUS43 KMKX 260100
RWRWI

WISCONSIN REGIONAL WEATHER ROUNDUP
NATIONAL WEATHER SERVICE MILWAUKEE/SULLIVAN WI
800 PM CDT THU AUG 25 2016

NOTE: "FAIR" INDICATES FEW OR NO CLOUDS BELOW 12,000 FEET WITH NO
SIGNIFICANT WEATHER AND/OR OBSTRUCTIONS TO VISIBILITY.

WIZ001-002-006>008-014>016-023>028-260200-
NORTHWEST WISCONSIN

CITY           SKY/WX    TMP DP  RH WIND       PRES   REMARKS
SUPERIOR ARPT  CLOUDY    65  56  71 W10       30.01R
ASHLAND        CLEAR     64  53  67 SW9       30.01S
HAYWARD        CLOUDY    63  53  70 W3        30.05R
SIREN          MOCLDY    64  53  66 W5        30.06R
CUMBERLAND     CLEAR     63  50  63 W7        30.07R
RICE LAKE      PTCLDY    64  53  65 W7        30.07R
CHETEK         NOT AVBL
LADYSMITH      PTCLDY    66  55  67 NW9       30.06R
EAU CLAIRE     NOT AVBL
MENOMONIE      CLEAR     67  54  61 W7        30.07R
NEW RICHMOND   MOCLDY    66  54  65 NW5       30.07S
OSCEOLA        CLEAR     65  52  63 W6        30.10R
$$

WIZ003>005-009-010-017-018-260200-
NORTH CENTRAL WISCONSIN

CITY           SKY/WX    TMP DP  RH WIND       PRES   REMARKS
MANITOWISH WTR NOT AVBL
ARBOR VITAE    PTCLDY    65  54  66 W10G21    30.02R
WOODRUFF       PTCLDY    65  54  66 W10G21    30.02R
RHINELANDER    PTCLDY    64  56  75 W7        30.03R
EAGLE RIVER    CLEAR     64  51  62 W6        30.01R
LAND O LAKES   PTCLDY    66  53  62 W13G21    30.01S
PHILLIPS       CLEAR     63  54  72 W5        30.03R
TOMAHAWK       PTCLDY    64  54  69 W5        30.03R
MEDFORD        CLEAR     64  55  70 W7        30.04R
MERRILL        CLEAR     66  55  66 W7        30.04R
$$

WIZ029-030-035-036-043>047-260200-
CENTRAL WISCONSIN

CITY           SKY/WX    TMP DP  RH WIND       PRES   REMARKS
WAUSAU         CLEAR     68  55  63 W9        30.01R
MOSINEE        NOT AVBL
MARSHFIELD     CLEAR     66  54  65 W6        30.04R
STEVENS POINT  CLEAR     71  57  62 W7        30.03R
WAUPACA        CLEAR     73  60  63 SW7       30.01R
WAUTOMA        CLEAR     70  62  76 SW6       30.03R
WISC RAPIDS    CLEAR     70  60  70 W7        30.05R
CAMP DOUGLAS   NOT AVBL
$$

WIZ011>013-019>022-031-037>040-048>050-260200-
NORTHEAST WISCONSIN

CITY           SKY/WX    TMP DP  RH WIND       PRES   REMARKS
ANTIGO         CLEAR     67  55  65 W9        30.02R
SHAWANO        PTCLDY    73  59  60 W7        29.99S
OCONTO         NOT AVBL
STURGEON BAY   CLEAR     72  60  66 W7        29.98R
GREEN BAY      CLEAR     71  62  73 W7        29.99R
MANITOWOC      NOT AVBL
APPLETON       PTCLDY    72  57  60 SW9       30.00R
CLINTONVILLE   CLEAR     72  57  60 W7        30.00R
OSHKOSH        CLEAR     72  61  68 VRB3      30.01R
$$

WIZ032>034-041-042-053>061-260200-
SOUTHWEST WISCONSIN

CITY           SKY/WX    TMP DP  RH WIND       PRES   REMARKS
LA CROSSE      CLEAR     72  58  61 NW12      30.05R
SPARTA         CLEAR     70  61  73 W3        30.06R
VIROQUA        CLEAR     68  64  86 W5        30.07S
BOSCOBEL       CLEAR     71  63  75 SW3       30.06R
PRAIRIE DU CHI CLEAR     73  60  64 CALM      30.06S
PLATTEVILLE    CLOUDY    70  67  90 SW5       30.08R
$$

WIZ056-057-062-063-064-067-068-260200-
SOUTH CENTRAL WISCONSIN

CITY           SKY/WX    TMP DP  RH WIND       PRES   REMARKS
REEDSBURG      NOT AVBL
BARABOO/DELLS  CLEAR     69  61  76 SW5       30.05R
LONE ROCK      NOT AVBL
MINERAL POINT  CLOUDY    70  64  83 SW5       30.08R
MADISON        PTCLDY    72  62  71 CALM      30.05R
MIDDLETON      CLEAR     72  63  74 SW3       30.06R
WATERTOWN      CLEAR     72  64  75 SW3       30.04R
MONROE         PTCLDY    72  63  73 W7        30.07S
JANESVILLE     MOCLDY    73  64  73 NW6       30.05R
$$

WIZ051-052-058>065-066-070>072-260200-
SOUTHEAST WISCONSIN

CITY           SKY/WX    TMP DP  RH WIND       PRES   REMARKS
MILWAUKEE      CLOUDY    78  58  49 W7        30.04R
WAUKESHA       CLEAR     72  61  68 W3        30.05S
MILWAUKEE/TIMM CLEAR     73  55  53 W6        30.04S
RACINE         CLOUDY    74  61  63 W3        30.05R
BURLINGTON     CLEAR     71  60  69 CALM      30.04S
KENOSHA        CLEAR     71  63  75 W3        30.04S
FOND DU LAC    CLEAR     70  61  73 SW5       30.02S
SHEBOYGAN      CLEAR     68  60  75 SW6       30.01S
WEST BEND      CLOUDY    72  59  64 W7        30.03S
JUNEAU         CLEAR     69  63  80 SW3       30.05R
$$

LSZ147-162-260200-
LAKE SUPERIOR

STATION/POSITION TIME  TEMP    WIND        PRES    WAVE
                       AIR SEA DIR/SP/G            HT/PER
                 (UTC) (F)     (DEG/KT/KT) (MB)    (FT/S)
W MID LAKE BUOY  2350   68 68  250/ 23/ 27 1012.4R   5/ 6
DEVILS ISLAND    0000   67     240/ 20/ 24 1014.5R
PORT WING        0000   68     230/ 11/ 17 1015.6
SAXON HARBOR     0040   67     220/  4/  7 1015.6R
$$

LMZ867-665-643>646-260200-
LAKE MICHIGAN

STATION/POSITION TIME  TEMP    WIND        PRES    WAVE
                       AIR SEA DIR/SP/G            HT/PER
                 (UTC) (F)     (DEG/KT/KT) (MB)    (FT/S)
CHAMBERS ISLAND  0000   75     220/  5/  9 1013.5
S GREEN BAY BUOY 2230   76 73  240/ 10/ 12 1014.1F
N MID LAKE BUOY  2350   72 70  210/ 16/ 17 1012.9S   2/ 4
NORTHPORT PIER   0000   77      CALM  /  5 1013.5S
SISTER BAY       0007   76     270/ 11/ 13   N/A
ALGOMA LAKESHORE 2300          260/  9/ 13   N/A
KEWAUNEE LAKESHO 0000   76                 1014.7R
SHEBOYGAN LAKESH 0000   77     240/  9/ 12 1015.2F
PORT WASHINGTON  0040   76     240/  3/  5 1016.9S
ATWATER BUOY     0000   68      CALM  /  2   N/A
MILWAUKEE LAKESH 0010   78     280/  7/  9   N/A
S MID LAKE BUOY  2350   74 75  270/  2/  2 1016.1F   1/ 4
KENOSHA   LAKESH 0000   78     290/  7/ 10 1016.6R
$$

TC  - TEMPERATURE IN CELSIUS
VSB - VISIBILITY IN STATUTE MILES
WCI - WIND CHILL INDEX
HX  - HEAT INDEX





USA.gov is the U.S. government's official web portal to all federal, state and local government web resources and services.